W9KHP-1 Weather Reports


time (UTC)temp
C
wind
direction
speed
KPH
gust
KPH
rain 1hr
cm
rain 24hr
cm
rain mn
cm
humidity
%
barometer
mb
20260905204809 37 319 0.0 3.2 0.00 0.00 0.00 47 1012.6
20260905204306 37 331 1.6 4.8 0.00 0.00 0.00 56 1012.5
20260905203804 38 335 0.0 1.6 0.00 0.00 0.00 47 1012.5
20260905203259 38 329 3.2 3.2 0.00 0.00 0.00 44 1012.6
20260905202750 38 295 0.0 1.6 0.00 0.00 0.00 48 1012.9
20260905202244 38 57 1.6 4.8 0.00 0.00 0.00 46 1012.8
20260905201740 38 216 6.4 6.4 0.00 0.00 0.00 46 1012.5
20260905201235 38 201 8.0 11.3 0.00 0.00 0.00 46 1012.6
20260905200730 39 344 0.0 3.2 0.00 0.00 0.00 49 1012.7
20260905200226 38 329 1.6 9.7 0.00 0.00 0.00 49 1013.0
20260905195724 38 319 1.6 1.6 0.00 0.00 0.00 52 1013.2
20260905195218 38 330 0.0 1.6 0.00 0.00 0.00 46 1013.0
20260905194714 38 335 0.0 6.4 0.00 0.00 0.00 47 1013.1
20260905194214 38 284 0.0 1.6 0.00 0.00 0.00 49 1013.2
20260905193708 39 10 1.6 3.2 0.00 0.00 0.00 50 1013.3
20260905193203 38 298 1.6 1.6 0.00 0.00 0.00 48 1013.4
20260905192659 37 203 3.2 4.8 0.00 0.00 0.00 49 1013.4
20260905192155 38 188 3.2 4.8 0.00 0.00 0.00 48 1013.7
20260905191654 38 337 0.0 0.0 0.00 0.00 0.00 51 1013.9
20260905191152 37 268 1.6 3.2 0.00 0.00 0.00 51 1013.8
20260905190651 38 308 1.6 3.2 0.00 0.00 0.00 50 1013.8
20260905190150 37 294 0.0 3.2 0.00 0.00 0.00 50 1013.9
20260905185649 37 337 0.0 0.0 0.00 0.00 0.00 50 1014.0
20260905185144 38 39 3.2 3.2 0.00 0.00 0.00 47 1014.0
20260905184643 38 323 3.2 3.2 0.00 0.00 0.00 49 1014.0
20260905184142 38 341 0.0 0.0 0.00 0.00 0.00 50 1014.1
20260905183641 38 328 0.0 6.4 0.00 0.00 0.00 52 1014.2
20260905183137 37 217 1.6 4.8 0.00 0.00 0.00 51 1014.2
20260905182636 37 326 1.6 3.2 0.00 0.00 0.00 52 1014.2
20260905182131 37 331 0.0 0.0 0.00 0.00 0.00 52 1014.5
20260905181626 38 138 1.6 3.2 0.00 0.00 0.00 52 1014.5
20260905181125 38 164 1.6 3.2 0.00 0.00 0.00 54 1014.5
20260905180620 37 108 0.0 3.2 0.00 0.00 0.00 55 1014.5
20260905180116 36 283 4.8 6.4 0.00 0.00 0.00 56 1014.5
20260905175615 37 120 3.2 4.8 0.00 0.00 0.00 53 1014.8
20260905175110 38 156 0.0 3.2 0.00 0.00 0.00 51 1014.7
20260905174606 36 316 0.0 0.0 0.00 0.00 0.00 56 1015.0
20260905174101 37 329 0.0 0.0 0.00 0.00 0.00 57 1014.9
20260905173557 37 317 0.0 0.0 0.00 0.00 0.00 57 1015.1
20260905173053 36 326 0.0 1.6 0.00 0.00 0.00 54 1015.1
20260905172551 37 0 3.2 3.2 0.00 0.00 0.00 58 1015.1
20260905172047 37 345 0.0 3.2 0.00 0.00 0.00 55 1015.1
20260905171543 37 317 0.0 1.6 0.00 0.00 0.00 57 1015.2
20260905171039 36 333 0.0 3.2 0.00 0.00 0.00 60 1015.3
20260905170535 37 214 3.2 6.4 0.00 0.00 0.00 58 1015.4
20260905170030 36 337 0.0 3.2 0.00 0.00 0.00 61 1015.5
20260905165525 36 327 0.0 3.2 0.00 0.00 0.00 61 1015.5
20260905165020 37 316 1.6 1.6 0.00 0.00 0.00 59 1015.6
20260905164519 36 338 1.6 4.8 0.00 0.00 0.00 58 1015.5
20260905164014 36 150 4.8 6.4 0.00 0.00 0.00 61 1015.8
20260905163510 35 40 1.6 3.2 0.00 0.00 0.00 62 1015.8
20260905163006 36 311 0.0 0.0 0.00 0.00 0.00 63 1016.2
20260905162501 36 334 0.0 1.6 0.00 0.00 0.00 61 1016.1
20260905161957 35 353 0.0 1.6 0.00 0.00 0.00 62 1016.3
20260905161456 35 338 1.6 3.2 0.00 0.00 0.00 62 1016.2
20260905160954 34 336 0.0 1.6 0.00 0.00 0.00 66 1016.4
20260905160448 34 333 0.0 1.6 0.00 0.00 0.00 65 1016.3
20260905155947 35 164 3.2 4.8 0.00 0.00 0.00 63 1016.3
20260905155442 34 313 0.0 1.6 0.00 0.00 0.00 67 1016.2
20260905154941 33 284 3.2 3.2 0.00 0.00 0.00 67 1016.3
20260905154436 32 294 1.6 1.6 0.00 0.00 0.00 69 1016.3
20260905153932 33 8 0.0 0.0 0.00 0.00 0.00 72 1016.3
20260905153428 32 326 0.0 0.0 0.00 0.00 0.00 76 1016.3
20260905152927 31 186 1.6 3.2 0.00 0.00 0.00 74 1016.4
20260905152427 31 131 0.0 3.2 0.00 0.00 0.00 75 1016.2
20260905151922 31 4 0.0 0.0 0.00 0.00 0.00 77 1016.4
20260905151413 31 7 0.0 0.0 0.00 0.00 0.00 78 1016.4
20260905150912 31 339 0.0 0.0 0.00 0.00 0.00 75 1016.4
20260905150407 31 321 3.2 3.2 0.00 0.00 0.00 75 1016.4
20260905145903 31 336 0.0 0.0 0.00 0.00 0.00 78 1016.3
20260905145358 30 187 0.0 0.0 0.00 0.00 0.00 80 1016.3
20260905144857 30 343 0.0 0.0 0.00 0.00 0.00 79 1016.4
20260905144353 30 346 0.0 0.0 0.00 0.00 0.00 79 1016.4
20260905143851 30 347 0.0 0.0 0.00 0.00 0.00 80 1016.4
20260905143346 30 318 0.0 0.0 0.00 0.00 0.00 79 1016.6
20260905142840 29 341 0.0 3.2 0.00 0.00 0.00 79 1016.4
20260905142338 29 355 0.0 0.0 0.00 0.00 0.00 82 1016.4
20260905141835 28 137 0.0 0.0 0.00 0.00 0.00 81 1016.5
20260905141330 28 150 0.0 3.2 0.00 0.00 0.00 81 1016.4
20260905140826 28 302 0.0 3.2 0.00 0.00 0.00 83 1016.6
20260905140325 28 178 1.6 1.6 0.00 0.00 0.00 83 1016.7
20260905135824 28 225 1.6 3.2 0.00 0.00 0.00 84 1017.0
20260905135320 28 263 0.0 3.2 0.00 0.00 0.00 85 1017.0
20260905134816 27 336 0.0 0.0 0.00 0.00 0.00 86 1017.1
20260905134314 27 349 0.0 0.0 0.00 0.00 0.00 88 1016.8
20260905133808 27 353 0.0 0.0 0.00 0.00 0.00 89 1016.8
20260905133304 27 353 0.0 0.0 0.00 0.00 0.00 87 1016.8
20260905132803 27 358 0.0 0.0 0.00 0.00 0.00 88 1017.0
20260905132258 27 8 0.0 0.0 0.00 0.00 0.00 90 1016.8
20260905131753 27 8 0.0 0.0 0.00 0.00 0.00 91 1016.8
20260905131248 26 9 0.0 0.0 0.00 0.00 0.00 89 1017.1
20260905130743 26 9 0.0 1.6 0.00 0.00 0.00 90 1017.0
20260905130242 26 9 0.0 0.0 0.00 0.00 0.00 92 1017.1
20260905125738 25 2 0.0 0.0 0.00 0.00 0.00 95 1017.1
20260905125233 25 350 0.0 0.0 0.00 0.00 0.00 96 1017.1
20260905124730 25 350 0.0 0.0 0.00 0.00 0.00 95 1016.8
20260905124225 25 350 0.0 0.0 0.00 0.00 0.00 95 1017.1
20260905123720 25 350 0.0 0.0 0.00 0.00 0.00 95 1016.8
20260905123218 25 350 0.0 0.0 0.00 0.00 0.00 94 1016.7
20260905122717 25 350 0.0 0.0 0.00 0.00 0.00 94 1016.7
20260905122217 25 350 0.0 0.0 0.00 0.00 0.00 94 1016.7
20260905121712 25 350 0.0 0.0 0.00 0.00 0.00 94 1016.7
20260905121208 25 351 0.0 0.0 0.00 0.00 0.00 95 1016.6
20260905120707 25 351 0.0 0.0 0.00 0.00 0.00 95 1016.6
20260905120201 25 351 0.0 0.0 0.00 0.00 0.00 95 1016.8
20260905115655 24 351 0.0 0.0 0.00 0.00 0.00 96 1016.6
20260905115150 24 351 0.0 0.0 0.00 0.00 0.00 96 1016.6
20260905114645 24 352 0.0 0.0 0.00 0.00 0.00 96 1016.6
20260905114143 24 352 0.0 0.0 0.00 0.00 0.00 96 1016.3
20260905113638 24 352 0.0 0.0 0.00 0.00 0.00 97 1016.2
20260905113133 24 352 0.0 0.0 0.00 0.00 0.00 97 1016.2
20260905112627 24 352 0.0 0.0 0.00 0.00 0.00 96 1016.0
20260905112124 25 352 0.0 0.0 0.00 0.00 0.00 97 1016.0
20260905111618 25 352 0.0 0.0 0.00 0.00 0.00 97 1015.9
20260905111117 25 352 0.0 0.0 0.00 0.00 0.00 97 1016.0
20260905110616 25 352 0.0 0.0 0.00 0.00 0.00 96 1015.8
20260905110111 25 352 0.0 0.0 0.00 0.00 0.00 96 1015.8
20260905105606 25 352 0.0 0.0 0.00 0.00 0.00 96 1015.9
20260905105105 25 352 0.0 0.0 0.00 0.00 0.00 96 1015.8
20260905104601 25 352 0.0 0.0 0.00 0.00 0.00 95 1015.5
20260905104101 25 352 0.0 0.0 0.00 0.00 0.00 95 1015.6
20260905103551 25 352 0.0 0.0 0.00 0.00 0.00 95 1015.5
20260905103047 25 352 0.0 0.0 0.00 0.00 0.00 95 1015.6
20260905102542 25 352 0.0 0.0 0.00 0.00 0.00 94 1015.7
20260905102039 25 352 0.0 0.0 0.00 0.00 0.00 94 1015.8
20260905101537 25 352 0.0 0.0 0.00 0.00 0.00 93 1015.5
20260905101035 25 352 0.0 0.0 0.00 0.00 0.00 93 1015.6
20260905100532 25 352 0.0 0.0 0.00 0.00 0.00 92 1015.5
20260905100031 25 352 0.0 0.0 0.00 0.00 0.00 92 1015.5
20260905095526 25 352 0.0 0.0 0.00 0.00 0.00 92 1015.5
20260905095021 25 352 0.0 0.0 0.00 0.00 0.00 92 1015.7
20260905094516 25 352 0.0 0.0 0.00 0.00 0.00 92 1015.6
20260905094015 25 352 0.0 0.0 0.00 0.00 0.00 91 1015.4
20260905093510 25 352 0.0 0.0 0.00 0.00 0.00 92 1015.5
20260905093007 25 16 0.0 0.0 0.00 0.00 0.00 91 1015.6
20260905092501 25 327 0.0 0.0 0.00 0.00 0.00 92 1015.2
20260905091956 25 327 0.0 0.0 0.00 0.00 0.00 91 1015.3
20260905091450 25 327 0.0 0.0 0.00 0.00 0.00 91 1015.3
20260905090950 25 327 0.0 0.0 0.00 0.00 0.00 91 1015.2
20260905090445 25 327 0.0 0.0 0.00 0.00 0.00 91 1015.4
20260905085944 25 326 0.0 0.0 0.00 0.00 0.00 91 1015.1
20260905085444 25 326 0.0 0.0 0.00 0.00 0.00 91 1015.1
20260905084940 25 326 0.0 0.0 0.00 0.00 0.00 92 1014.9
20260905084439 25 326 0.0 0.0 0.00 0.00 0.00 91 1015.2
20260905083934 25 326 0.0 0.0 0.00 0.00 0.00 91 1015.1
20260905083430 25 326 0.0 0.0 0.00 0.00 0.00 90 1015.0
20260905082925 25 326 0.0 0.0 0.00 0.00 0.00 90 1015.2
20260905082421 25 326 0.0 0.0 0.00 0.00 0.00 90 1015.2
20260905081916 25 326 0.0 0.0 0.00 0.00 0.00 90 1015.2
20260905081411 26 326 0.0 0.0 0.00 0.00 0.00 90 1015.1
20260905080910 26 326 0.0 0.0 0.00 0.00 0.00 90 1015.4
20260905080409 26 326 0.0 0.0 0.00 0.00 0.00 89 1015.3
20260905075908 26 326 0.0 0.0 0.00 0.00 0.00 88 1015.4
20260905075403 26 326 0.0 0.0 0.00 0.00 0.00 88 1015.4
20260905074902 26 326 0.0 0.0 0.00 0.00 0.00 87 1015.5
20260905074358 26 326 0.0 0.0 0.00 0.00 0.00 86 1015.2
20260905073854 26 326 0.0 0.0 0.00 0.00 0.00 86 1015.5
20260905073348 26 326 0.0 0.0 0.00 0.00 0.00 85 1015.6
20260905072843 26 326 0.0 0.0 0.00 0.00 0.00 85 1015.5
20260905072339 26 326 0.0 0.0 0.00 0.00 0.00 84 1015.5
20260905071835 27 326 0.0 0.0 0.00 0.00 0.00 84 1015.6
20260905071331 27 326 0.0 0.0 0.00 0.00 0.00 84 1015.7
20260905070826 27 326 0.0 0.0 0.00 0.00 0.00 84 1015.4
20260905070323 27 326 0.0 0.0 0.00 0.00 0.00 83 1015.6
20260905065821 27 326 0.0 0.0 0.00 0.00 0.00 82 1015.7
20260905065320 27 326 0.0 0.0 0.00 0.00 0.00 83 1015.7
20260905064815 27 325 0.0 0.0 0.00 0.00 0.00 83 1015.6
20260905064310 27 326 0.0 0.0 0.00 0.00 0.00 83 1015.5
20260905063808 27 326 0.0 0.0 0.00 0.00 0.00 82 1015.6
20260905063305 27 326 0.0 0.0 0.00 0.00 0.00 82 1015.7
20260905062801 27 326 0.0 0.0 0.00 0.00 0.00 81 1015.8
20260905062255 27 326 0.0 0.0 0.00 0.00 0.00 81 1015.7
20260905061750 27 325 0.0 0.0 0.00 0.00 0.00 81 1016.0
20260905061249 27 324 0.0 0.0 0.00 0.00 0.00 81 1015.8
20260905060744 27 333 0.0 0.0 0.00 0.00 0.00 80 1015.8
20260905060241 28 334 0.0 0.0 0.00 0.00 0.00 79 1015.9
20260905055739 28 346 0.0 0.0 0.00 0.00 0.00 78 1015.8
20260905055235 28 347 0.0 0.0 0.00 0.00 0.00 78 1015.8
20260905054730 28 322 0.0 0.0 0.00 0.00 0.00 78 1015.9
20260905054226 28 344 0.0 0.0 0.00 0.00 0.00 77 1015.8
20260905053725 28 333 0.0 0.0 0.00 0.00 0.00 76 1016.0
20260905053221 28 329 0.0 0.0 0.00 0.00 0.00 77 1016.0
20260905052714 28 337 0.0 0.0 0.00 0.00 0.00 75 1016.1
20260905052209 28 343 0.0 0.0 0.00 0.00 0.00 76 1016.2
20260905051709 28 328 0.0 0.0 0.00 0.00 0.00 77 1015.9
20260905051206 28 333 0.0 0.0 0.00 0.00 0.00 77 1016.0
20260905050702 28 332 0.0 0.0 0.00 0.00 0.00 77 1016.1
20260905050159 28 333 0.0 0.0 0.00 0.00 0.00 78 1016.1
20260905045653 28 334 0.0 0.0 0.00 0.00 0.00 77 1016.0
20260905045148 28 337 0.0 0.0 0.00 0.00 0.00 78 1015.9
20260905044643 28 345 0.0 0.0 0.00 0.00 0.00 77 1016.0
20260905044138 28 344 0.0 0.0 0.00 0.00 0.00 76 1015.9
20260905043636 28 345 0.0 0.0 0.00 0.00 0.00 76 1015.9
20260905043132 28 350 0.0 0.0 0.00 0.00 0.00 74 1015.9
20260905042631 28 326 0.0 0.0 0.00 0.00 0.00 75 1015.9
20260905042126 29 332 0.0 0.0 0.00 0.00 0.00 74 1015.9
20260905041621 28 301 0.0 0.0 0.00 0.00 0.00 74 1015.9
20260905041116 28 335 0.0 0.0 0.00 0.00 0.00 76 1016.0
20260905040611 28 335 0.0 0.0 0.00 0.00 0.00 76 1015.9
20260905040109 28 335 0.0 0.0 0.00 0.00 0.00 77 1016.1
20260905035604 28 335 0.0 0.0 0.00 0.00 0.00 76 1016.1
20260905035101 29 323 0.0 0.0 0.00 0.00 0.00 76 1016.1
20260905034557 30 322 0.0 0.0 0.00 0.00 0.00 73 1016.0
20260905034050 29 325 0.0 0.0 0.00 0.00 0.00 73 1016.1
20260905033544 29 291 0.0 0.0 0.00 0.00 0.00 75 1015.9
20260905033041 29 350 0.0 0.0 0.00 0.00 0.00 78 1016.0
20260905032535 29 296 0.0 0.0 0.00 0.00 0.00 77 1016.0
20260905032030 29 301 0.0 0.0 0.00 0.00 0.00 79 1016.0
20260905031526 29 336 0.0 0.0 0.00 0.00 0.00 79 1016.0
20260905031025 30 54 0.0 0.0 0.00 0.00 0.00 78 1016.1
20260905030520 30 299 0.0 0.0 0.00 0.00 0.00 77 1016.0
20260905030015 29 305 0.0 0.0 0.00 0.00 0.00 77 1016.1
20260905025510 29 1 0.0 0.0 0.00 0.00 0.00 78 1015.9
20260905025006 29 299 0.0 0.0 0.00 0.00 0.00 80 1016.1
20260905024501 29 352 0.0 0.0 0.00 0.00 0.00 81 1016.2
20260905023957 29 352 0.0 0.0 0.00 0.00 0.00 79 1016.1
20260905023451 29 353 0.0 0.0 0.00 0.00 0.00 79 1016.0
20260905022950 29 353 0.0 0.0 0.00 0.00 0.00 81 1016.0
20260905022445 30 353 0.0 0.0 0.00 0.00 0.00 78 1015.9
20260905021941 30 353 0.0 0.0 0.00 0.00 0.00 79 1015.9
20260905021440 30 353 0.0 0.0 0.00 0.00 0.00 78 1016.0
20260905020936 30 1 0.0 0.0 0.00 0.00 0.00 78 1015.7
20260905020435 30 1 0.0 0.0 0.00 0.00 0.00 77 1015.8
20260905015930 30 2 0.0 0.0 0.00 0.00 0.00 77 1015.9
20260905015428 30 332 0.0 0.0 0.00 0.00 0.00 77 1015.7
20260905014927 30 315 0.0 0.0 0.00 0.00 0.00 77 1015.7
20260905014423 30 314 0.0 0.0 0.00 0.00 0.00 76 1015.5
20260905013918 30 347 0.0 0.0 0.00 0.00 0.00 76 1015.6
20260905013415 30 352 0.0 0.0 0.00 0.00 0.00 75 1015.6
20260905012910 30 359 0.0 0.0 0.00 0.00 0.00 75 1015.5
20260905012405 30 351 0.0 0.0 0.00 0.00 0.00 76 1015.4
20260905011902 30 297 0.0 0.0 0.00 0.00 0.00 75 1015.5
20260905011357 30 331 0.0 0.0 0.00 0.00 0.00 76 1015.2
20260905010853 30 343 0.0 0.0 0.00 0.00 0.00 76 1015.4
20260905010347 30 343 0.0 0.0 0.00 0.00 0.00 77 1015.4
20260905005843 30 339 0.0 0.0 0.00 0.00 0.00 77 1015.2
20260905005339 30 304 0.0 0.0 0.00 0.00 0.00 77 1015.3
20260905004834 30 323 0.0 0.0 0.00 0.00 0.00 77 1015.2
20260905004323 30 332 0.0 0.0 0.00 0.00 0.00 75 1015.1
20260905003818 30 332 0.0 0.0 0.00 0.00 0.00 74 1015.0
20260905003315 31 332 0.0 0.0 0.00 0.00 0.00 73 1015.0
20260905002815 31 332 0.0 0.0 0.00 0.00 0.00 72 1015.2
20260905002309 31 342 0.0 0.0 0.00 0.00 0.00 73 1015.1
20260905001804 31 346 0.0 0.0 0.00 0.00 0.00 70 1015.3
20260905001304 31 339 0.0 0.0 0.00 0.00 0.00 71 1015.0
20260905000759 31 344 0.0 0.0 0.00 0.00 0.00 75 1015.0
20260905000255 31 352 0.0 0.0 0.00 0.00 0.00 74 1015.0
20260904235750 31 353 0.0 0.0 0.00 0.00 0.00 74 1015.1
20260904235249 32 318 0.0 0.0 0.00 0.00 0.00 76 1015.0
20260904234744 32 318 0.0 0.0 0.00 0.00 0.00 70 1015.0
20260904234239 32 318 0.0 0.0 0.00 0.00 0.00 67 1015.0
20260904233735 32 318 0.0 0.0 0.00 0.00 0.00 69 1015.0
20260904233231 32 318 0.0 0.0 0.00 0.00 0.00 70 1015.1
20260904232728 32 318 0.0 0.0 0.00 0.00 0.00 72 1015.1
20260904232224 32 318 0.0 0.0 0.00 0.00 0.00 74 1014.7
20260904231720 32 318 0.0 0.0 0.00 0.00 0.00 75 1014.7
20260904231215 32 318 0.0 0.0 0.00 0.00 0.00 76 1014.7
20260904230714 33 318 0.0 0.0 0.00 0.00 0.00 76 1014.7
20260904230204 33 318 0.0 0.0 0.00 0.00 0.00 75 1014.9
20260904225703 34 318 0.0 0.0 0.00 0.00 0.00 71 1014.6
20260904225157 34 318 0.0 0.0 0.00 0.00 0.00 69 1014.8
20260904224656 35 318 0.0 0.0 0.00 0.00 0.00 66 1014.7
20260904224151 35 318 0.0 0.0 0.00 0.00 0.00 63 1014.7
20260904223650 36 318 0.0 0.0 0.00 0.00 0.00 61 1014.4
20260904223146 36 318 0.0 0.0 0.00 0.00 0.00 61 1014.6
20260904222642 37 318 0.0 0.0 0.00 0.00 0.00 60 1014.6
20260904222137 37 320 0.0 0.0 0.00 0.00 0.00 54 1014.5
20260904221636 37 320 0.0 0.0 0.00 0.00 0.00 54 1014.6
20260904221131 37 320 0.0 0.0 0.00 0.00 0.00 52 1014.7
20260904220626 37 315 0.0 0.0 0.00 0.00 0.00 55 1014.5
20260904220121 37 322 0.0 0.0 0.00 0.00 0.00 55 1014.6
20260904215616 38 321 0.0 0.0 0.00 0.00 0.00 52 1014.6
20260904215112 38 316 0.0 0.0 0.00 0.00 0.00 54 1014.7
20260904214607 38 326 0.0 0.0 0.00 0.00 0.00 51 1014.8
20260904214102 38 315 0.0 0.0 0.00 0.00 0.00 50 1014.6
20260904213600 38 337 0.0 0.0 0.00 0.00 0.00 49 1014.6
20260904213057 38 340 0.0 0.0 0.00 0.00 0.00 49 1014.7
20260904212557 38 317 0.0 1.6 0.00 0.00 0.00 49 1014.7
20260904212052 38 335 0.0 0.0 0.00 0.00 0.00 49 1014.6
20260904211551 39 303 0.0 0.0 0.00 0.00 0.00 44 1015.0
20260904211047 40 315 0.0 0.0 0.00 0.00 0.00 47 1015.0
20260904210546 40 323 0.0 0.0 0.00 0.00 0.00 43 1015.0
20260904210043 39 323 0.0 0.0 0.00 0.00 0.00 47 1015.2
20260904205543 38 315 0.0 0.0 0.00 0.00 0.00 47 1015.2